| time (UTC) | temp C | wind direction | speed KPH | gust KPH | rain 1hr cm | rain 24hr cm | rain mn cm | humidity % | barometer mb |
| 20260504223402 | 13 | 206 | 1.6 | 8.0 | 0.00 | 0.15 | 0.00 | 90 | 1012.6 |
| 20260504222354 | 13 | 206 | 1.6 | 11.3 | 0.00 | 0.15 | 0.00 | 90 | 1012.6 |
| 20260504221356 | 14 | 207 | 3.2 | 8.0 | 0.00 | 0.15 | 0.00 | 88 | 1012.7 |
| 20260504220400 | 14 | 204 | 1.6 | 4.8 | 0.00 | 0.15 | 0.00 | 88 | 1012.5 |
| 20260504215413 | 14 | 259 | 1.6 | 4.8 | 0.00 | 0.15 | 0.13 | 86 | 1012.4 |
| 20260504214354 | 15 | 258 | 1.6 | 6.4 | 0.03 | 0.15 | 0.13 | 85 | 1012.5 |
| 20260504213413 | 15 | 251 | 4.8 | 8.0 | 0.05 | 0.15 | 0.13 | 85 | 1012.6 |
| 20260504212419 | 15 | 168 | 1.6 | 6.4 | 0.05 | 0.15 | 0.13 | 83 | 1012.7 |
| 20260504211419 | 15 | 166 | 1.6 | 4.8 | 0.05 | 0.15 | 0.13 | 82 | 1012.8 |
| 20260504210411 | 15 | 291 | 0.0 | 3.2 | 0.05 | 0.15 | 0.13 | 81 | 1013.1 |
| 20260504205348 | 15 | 291 | 1.6 | 4.8 | 0.08 | 0.15 | 0.08 | 79 | 1012.9 |
| 20260504204415 | 15 | 291 | 0.0 | 9.7 | 0.05 | 0.18 | 0.08 | 78 | 1013.2 |
| 20260504203410 | 16 | 318 | 1.6 | 11.3 | 0.05 | 0.15 | 0.08 | 77 | 1013.3 |
| 20260504202356 | 16 | 259 | 8.0 | 20.9 | 0.03 | 0.15 | 0.05 | 76 | 1013.6 |
| 20260504201400 | 16 | 261 | 12.9 | 35.4 | 0.03 | 0.15 | 0.05 | 76 | 1013.5 |
| 20260504200400 | 17 | 253 | 14.5 | 22.5 | 0.03 | 0.15 | 0.05 | 83 | 1013.3 |
| 20260504195359 | 17 | 223 | 3.2 | 8.0 | 0.00 | 0.13 | 0.05 | 84 | 1012.7 |
| 20260504194358 | 17 | 219 | 1.6 | 6.4 | 0.00 | 0.13 | 0.05 | 83 | 1012.5 |
| 20260504193359 | 17 | 216 | 3.2 | 8.0 | 0.00 | 0.13 | 0.05 | 83 | 1012.4 |
| 20260504191359 | 17 | 220 | 6.4 | 8.0 | 0.00 | 0.13 | 0.05 | 81 | 1012.1 |
| 20260504190357 | 17 | 216 | 4.8 | 9.7 | 0.00 | 0.13 | 0.05 | 81 | 1012.1 |
| 20260504185413 | 17 | 211 | 4.8 | 8.0 | 0.00 | 0.13 | 0.05 | 81 | 1012.0 |
| 20260504184409 | 17 | 210 | 3.2 | 4.8 | 0.00 | 0.15 | 0.05 | 80 | 1011.8 |
| 20260504183405 | 17 | 210 | 4.8 | 8.0 | 0.00 | 0.15 | 0.05 | 79 | 1011.8 |
| 20260504182413 | 17 | 207 | 4.8 | 8.0 | 0.00 | 0.15 | 0.05 | 78 | 1011.6 |
| 20260504181409 | 17 | 181 | 1.6 | 9.7 | 0.00 | 0.15 | 0.05 | 78 | 1011.3 |
| 20260504180404 | 17 | 221 | 6.4 | 11.3 | 0.00 | 0.15 | 0.05 | 77 | 1011.3 |
| 20260504175358 | 18 | 229 | 3.2 | 8.0 | 0.00 | 0.15 | 0.05 | 77 | 1011.4 |
| 20260504174353 | 18 | 197 | 1.6 | 6.4 | 0.00 | 0.15 | 0.05 | 76 | 1011.3 |
| 20260504173424 | 18 | 116 | 1.6 | 6.4 | 0.00 | 0.15 | 0.05 | 76 | 1011.5 |
| 20260504172423 | 18 | 114 | 1.6 | 4.8 | 0.00 | 0.15 | 0.05 | 75 | 1011.6 |
| 20260504171413 | 18 | 110 | 0.0 | 3.2 | 0.00 | 0.15 | 0.05 | 76 | 1011.5 |
| 20260504170415 | 18 | 112 | 1.6 | 4.8 | 0.00 | 0.15 | 0.05 | 76 | 1011.6 |
| 20260504160415 | 17 | 127 | 4.8 | 8.0 | 0.03 | 0.15 | 0.05 | 77 | 1011.9 |
| 20260504150400 | 17 | 283 | 6.4 | 11.3 | 0.00 | 0.13 | 0.05 | 78 | 1012.4 |
| 20260504140352 | 18 | 214 | 9.7 | 19.3 | 0.00 | 0.13 | 0.05 | 71 | 1012.4 |
| 20260504130341 | 19 | 191 | 1.6 | 14.5 | 0.00 | 0.13 | 0.05 | 70 | 1012.6 |
| 20260504110339 | 20 | 114 | 6.4 | 17.7 | 0.00 | 0.08 | 0.00 | 67 | 1012.8 |
| 20260504100346 | 21 | 219 | 12.9 | 20.9 | 0.00 | 0.08 | 0.00 | 57 | 1012.9 |
| 20260504081354 | 18 | 183 | 3.2 | 11.3 | 0.00 | 0.08 | 0.00 | 70 | 1013.2 |
| 20260504080339 | 18 | 219 | 1.6 | 8.0 | 0.00 | 0.08 | 0.00 | 72 | 1013.3 |
| 20260504070348 | 16 | 245 | 0.0 | 6.4 | 0.00 | 0.08 | 0.00 | 89 | 1013.9 |
| 20260504050335 | 15 | 9 | 0.0 | 1.6 | 0.00 | 0.08 | 0.00 | 94 | 1013.9 |
| 20260504045354 | 15 | 9 | 0.0 | 1.6 | 0.00 | 0.08 | 0.00 | 94 | 1014.0 |
| 20260504044356 | 15 | 9 | 1.6 | 4.8 | 0.00 | 0.08 | 0.00 | 94 | 1013.9 |
| 20260504043336 | 15 | 9 | 3.2 | 4.8 | 0.00 | 0.08 | 0.00 | 93 | 1014.0 |
| 20260504042339 | 15 | 14 | 0.0 | 4.8 | 0.00 | 0.08 | 0.00 | 94 | 1014.0 |
| 20260504041348 | 15 | 15 | 0.0 | 3.2 | 0.00 | 0.08 | 0.00 | 93 | 1014.0 |
| 20260504040337 | 15 | 15 | 1.6 | 3.2 | 0.00 | 0.08 | 0.00 | 93 | 1014.0 |
| 20260504035338 | 15 | 15 | 1.6 | 4.8 | 0.00 | 0.08 | 0.00 | 93 | 1014.1 |
| 20260504034337 | 15 | 29 | 0.0 | 4.8 | 0.00 | 0.08 | 0.00 | 93 | 1014.1 |
| 20260504033345 | 15 | 29 | 1.6 | 4.8 | 0.00 | 0.08 | 0.00 | 93 | 1014.1 |
| 20260504032347 | 15 | 27 | 0.0 | 0.0 | 0.00 | 0.08 | 0.00 | 93 | 1014.3 |
| 20260504031354 | 15 | 27 | 0.0 | 0.0 | 0.00 | 0.08 | 0.00 | 93 | 1014.5 |
| 20260504030339 | 15 | 27 | 0.0 | 0.0 | 0.00 | 0.08 | 0.00 | 93 | 1014.5 |
| 20260504025342 | 15 | 27 | 0.0 | 0.0 | 0.00 | 0.08 | 0.00 | 93 | 1014.4 |
| 20260504024343 | 15 | 27 | 0.0 | 0.0 | 0.00 | 0.08 | 0.00 | 93 | 1014.3 |
| 20260504023347 | 15 | 27 | 0.0 | 0.0 | 0.00 | 0.08 | 0.00 | 93 | 1014.1 |
| 20260504022341 | 15 | 27 | 0.0 | 0.0 | 0.00 | 0.08 | 0.00 | 92 | 1014.2 |
| 20260504021347 | 15 | 27 | 0.0 | 0.0 | 0.00 | 0.08 | 0.00 | 92 | 1014.3 |
| 20260504020349 | 15 | 27 | 0.0 | 0.0 | 0.00 | 0.08 | 0.00 | 92 | 1014.3 |
| 20260504015350 | 15 | 27 | 0.0 | 0.0 | 0.00 | 0.08 | 0.00 | 93 | 1014.3 |
| 20260504014353 | 15 | 27 | 0.0 | 0.0 | 0.00 | 0.08 | 0.00 | 92 | 1014.6 |
| 20260504013354 | 15 | 27 | 0.0 | 0.0 | 0.00 | 0.08 | 0.00 | 92 | 1014.7 |
| 20260504012351 | 15 | 27 | 0.0 | 0.0 | 0.00 | 0.08 | 0.00 | 92 | 1014.7 |
| 20260504011357 | 15 | 27 | 0.0 | 0.0 | 0.00 | 0.08 | 0.00 | 92 | 1014.8 |
| 20260504010338 | 15 | 27 | 0.0 | 0.0 | 0.00 | 0.08 | 0.00 | 92 | 1014.8 |
| 20260504005356 | 15 | 27 | 0.0 | 0.0 | 0.00 | 0.08 | 0.00 | 92 | 1015.0 |
| 20260504004355 | 15 | 27 | 0.0 | 0.0 | 0.00 | 0.08 | 0.00 | 92 | 1015.1 |
| 20260504003337 | 15 | 27 | 0.0 | 0.0 | 0.00 | 0.08 | 0.00 | 92 | 1015.2 |
| 20260504002337 | 15 | 27 | 0.0 | 3.2 | 0.00 | 0.08 | 0.00 | 92 | 1015.3 |
| 20260504001337 | 15 | 27 | 1.6 | 6.4 | 0.00 | 0.08 | 0.00 | 91 | 1015.2 |
| 20260504000336 | 15 | 31 | 0.0 | 0.0 | 0.00 | 0.08 | 0.00 | 92 | 1015.2 |
| 20260503235356 | 15 | 34 | 0.0 | 0.0 | 0.00 | 0.08 | 0.00 | 92 | 1015.1 |
| 20260503234338 | 15 | 34 | 0.0 | 0.0 | 0.00 | 0.08 | 0.00 | 92 | 1015.4 |
| 20260503233341 | 15 | 34 | 0.0 | 0.0 | 0.00 | 0.08 | 0.00 | 91 | 1015.5 |
| 20260503232354 | 15 | 34 | 0.0 | 3.2 | 0.00 | 0.08 | 0.00 | 91 | 1015.4 |
| 20260503231353 | 15 | 34 | 1.6 | 4.8 | 0.00 | 0.08 | 0.00 | 91 | 1015.4 |
| 20260503230339 | 15 | 34 | 1.6 | 3.2 | 0.00 | 0.08 | 0.00 | 91 | 1015.5 |
| 20260503225358 | 15 | 34 | 3.2 | 6.4 | 0.00 | 0.08 | 0.00 | 90 | 1015.5 |
| 20260503224358 | 15 | 32 | 4.8 | 6.4 | 0.00 | 0.08 | 0.00 | 90 | 1015.5 |